This is the latest recevied weather packets stored in our database for station/object N7CEE. If no packets are shown the sender has not sent any weather packets the latest 10 day(s).
| Time | Temp. | Humidity | Pressure | Rain* | Wind** | Luminosity | Snow |
|---|---|---|---|---|---|---|---|
| 1777686492 | 11.67° C | 33% | 1022.9 hPa | 0 mm | - | 12 W/m² | - |
| 1777686189 | 11.67° C | 33% | 1023 hPa | 0 mm | - | 13 W/m² | - |
| 1777685885 | 11.67° C | 32% | 1022.9 hPa | 0 mm | - | 16 W/m² | - |
| 1777685581 | 12.22° C | 33% | 1023 hPa | 0 mm | - | 20 W/m² | - |
| 1777685278 | 12.22° C | 32% | 1022.6 hPa | 0 mm | - | 24 W/m² | - |
| 1777684975 | 12.22° C | 32% | 1022.8 hPa | 0 mm | - | 20 W/m² | - |
| 1777684673 | 12.22° C | 32% | 1022.9 hPa | 0 mm | - | 16 W/m² | - |
| 1777684368 | 12.22° C | 32% | 1022.5 hPa | 0 mm | - | 14 W/m² | - |
| 1777684066 | 12.22° C | 31% | 1022.6 hPa | 0 mm | - | 18 W/m² | - |
| 1777683762 | 12.78° C | 31% | 1022.5 hPa | 0 mm | - | 19 W/m² | - |
| 1777683459 | 12.78° C | 31% | 1022.8 hPa | 0 mm | - | 22 W/m² | - |
| 1777683157 | 12.78° C | 30% | 1022.3 hPa | 0 mm | - | 22 W/m² | - |
| 1777682854 | 13.33° C | 29% | 1022.8 hPa | 0 mm | - | 21 W/m² | - |
| 1777682550 | 13.89° C | 29% | 1022.5 hPa | 0 mm | - | 22 W/m² | - |
| 1777682248 | 13.89° C | 29% | 1022.4 hPa | 0 mm | - | 20 W/m² | - |
| 1777681945 | 13.89° C | 29% | 1022 hPa | 0 mm | - | 20 W/m² | - |
| 1777681641 | 13.89° C | 28% | 1022.1 hPa | 0 mm | - | 20 W/m² | - |
| 1777681339 | 13.89° C | 29% | 1022 hPa | 0 mm | - | 23 W/m² | - |
| 1777681035 | 14.44° C | 29% | 1022 hPa | 0 mm | - | 28 W/m² | - |
| 1777680734 | 14.44° C | 30% | 1022.1 hPa | 0 mm | - | 31 W/m² | - |
| 1777680431 | 14.44° C | 29% | 1022.1 hPa | 0 mm | - | 40 W/m² | - |
| 1777680129 | 14.44° C | 29% | 1021.9 hPa | 0 mm | - | 54 W/m² | - |
| 1777679824 | 14.44° C | 29% | 1022 hPa | 0 mm | - | 75 W/m² | - |
| 1777679520 | 14.44° C | 29% | 1021.9 hPa | 0 mm | - | 88 W/m² | - |
| 1777679216 | 15° C | 28% | 1022.1 hPa | 0 mm | - | 79 W/m² | - |
* Rain latest hour (hover to see other rain measurements)
** Current wind speed in m/s (hover to see current wind gust speed)